Location: Newark
(40.2401°N, 1.4098°W)
Time: 07:44:56
(UTC+00:00)

N. Korean satellite - Visible Passes

Search period start: 23 October 2019 00:00
Search period end: 02 November 2019 00:00
Orbit: 455 x 508 km, 97.2° (Epoch: 22 October)

Date Brightness Start Highest point End Pass type
(mag) Time Alt. Az. Time Alt. Az. Time Alt. Az.
23 Oct 9.9 05:08:58 10° NE 05:11:28 17° E 05:13:59 10° SE visible
25 Oct 7.2 05:50:45 10° NNE 05:54:23 62° E 05:58:03 10° S visible
25 Oct 9.6 17:59:47 10° SW 18:02:25 21° W 18:05:06 10° NW visible
26 Oct 9.0 05:25:48 10° NE 05:29:02 29° E 05:32:16 10° SSE visible
26 Oct 7.9 17:33:42 10° S 17:37:00 45° W 17:40:22 10° NNW visible
27 Oct 10.2 05:01:30 10° ENE 05:03:34 14° E 05:05:38 10° SE visible
28 Oct 10.2 18:18:24 10° WSW 18:19:58 13° W 18:21:32 10° WNW visible
29 Oct 7.8 05:42:54 10° NNE 05:46:30 49° E 05:50:06 10° S visible
29 Oct 9.1 17:51:32 10° SSW 17:54:28 26° W 17:57:27 10° NW visible
30 Oct 9.4 05:18:05 10° NE 05:21:06 23° E 05:24:07 10° SSE visible
31 Oct 10.3 04:54:15 10° ENE 04:55:36 12° E 04:56:57 10° ESE visible
01 Nov 6.7 06:00:12 10° NNE 06:03:56 86° ESE 06:07:39 10° SSW visible
01 Nov 9.9 18:09:45 10° SW 18:11:57 16° W 18:14:11 10° NW visible
